Arctic Village, AK

5:43 PM AKST on January 17, 2018 (GMT -0900)
Arctic Village

Weather History for PARC - April, 2014

Change the Weather History Date:

Saturday, April 19, 2014

  Actual Average Record
Temperature  
Mean Temperature 24 °F -  
Max Temperature 30 °F 38 °F 43 °F (1993)
Min Temperature 15 °F 7 °F -11 °F (2004)
Degree Days  
Heating Degree Days 42    
Moisture  
Dew Point 17 °F    
Average Humidity 73    
Maximum Humidity 86    
Minimum Humidity 59    
Precipitation  
Precipitation 0.00 in - - ()
Sea Level Pressure  
Sea Level Pressure 29.73 in    
Wind  
Wind Speed 4 mph (ENE)    
Max Wind Speed 15 mph    
Max Gust Speed -    
Visibility 10 miles    
Events      
Averages and records for this station are not official NWS values.
T = Trace of Precipitation, MM = Missing Value Source: NWS Daily Summary

Daily Weather History Graph

Daily Weather History Graph

Search for Another Location

Airport or City:

Trip Planner

Search our weather history database for the weather conditions in past years. The results will help you decide how hot, cold, wet, or windy it might be!

Date:

Astronomy

Apr. 19, 2014 Rise Set
Actual Time 5:31 AM AKDT 9:53 PM AKDT
Civil Twilight 4:15 AM AKDT 11:11 PM AKDT
Nautical Twilight 2:13 AM AKDT 1:08 AM AKDT
Astronomical Twilight Sun does not rise Sun does not rise
Moon 3:15 AM AKDT (4/19) 7:29 AM AKDT (4/19)
Length of Visible Light 18h 55m
Length of Day
16h 21m
Waning Gibbous, 77% of the Moon is Illuminated
Apr 19
Waning Gibbous
Apr 21
Last Quarter
Apr 28
New
May 6
First Quarter
May 14
Full

Hourly Weather History & Observations

Time (AKDT) Temp. Windchill Dew Point Humidity Pressure Visibility Wind Dir Wind Speed Gust Speed Precip Events Conditions
12:16 AM 24.8 °F - 19.4 °F 80% 29.65 in 10.0 mi Calm Calm - N/A   Overcast
12:36 AM 24.8 °F - 19.4 °F 80% 29.65 in 10.0 mi Calm Calm - N/A   Overcast
12:56 AM 24.8 °F - 19.4 °F 80% 29.65 in 10.0 mi Calm Calm - N/A   Overcast
1:16 AM 24.8 °F 19.1 °F 19.4 °F 80% 29.66 in 10.0 mi East 4.6 mph - N/A   Overcast
1:36 AM 24.8 °F 19.1 °F 19.4 °F 80% 29.66 in 10.0 mi ESE 4.6 mph - N/A   Overcast
1:56 AM 24.8 °F 20.5 °F 19.4 °F 80% 29.66 in 10.0 mi East 3.5 mph - N/A   Overcast
2:16 AM 23.0 °F 18.4 °F 17.6 °F 80% 29.67 in 10.0 mi East 3.5 mph - N/A   Overcast
2:36 AM 23.0 °F - 17.6 °F 80% 29.67 in 10.0 mi Calm Calm - N/A   Overcast
2:56 AM 23.0 °F - 17.6 °F 80% 29.67 in 10.0 mi Calm Calm - N/A   Overcast
3:16 AM 23.0 °F - 17.6 °F 80% 29.68 in 10.0 mi Calm Calm - N/A   Overcast
3:36 AM 23.0 °F - 17.6 °F 80% 29.68 in 10.0 mi Calm Calm - N/A   Overcast
3:56 AM 21.2 °F 14.9 °F 17.6 °F 86% 29.68 in 10.0 mi NE 4.6 mph - N/A   Overcast
4:16 AM 23.0 °F 17.0 °F 17.6 °F 80% 29.68 in 10.0 mi East 4.6 mph - N/A   Overcast
4:36 AM 21.2 °F 16.4 °F 17.6 °F 86% 29.68 in 10.0 mi East 3.5 mph - N/A   Overcast
4:56 AM 21.2 °F 14.9 °F 17.6 °F 86% 29.68 in 10.0 mi ENE 4.6 mph - N/A   Overcast
5:16 AM 21.2 °F 16.4 °F 17.6 °F 86% 29.68 in 10.0 mi NE 3.5 mph - N/A   Overcast
5:36 AM 21.2 °F - 17.6 °F 86% 29.68 in 10.0 mi Calm Calm - N/A   Overcast
5:56 AM 21.2 °F - 17.6 °F 86% 29.68 in 10.0 mi Calm Calm - N/A   Overcast
6:16 AM 21.2 °F 14.9 °F 15.8 °F 80% 29.68 in 10.0 mi ENE 4.6 mph - N/A   Overcast
6:36 AM 21.2 °F 14.9 °F 17.6 °F 86% 29.69 in 10.0 mi East 4.6 mph - N/A   Overcast
6:56 AM 21.2 °F 16.4 °F 17.6 °F 86% 29.69 in 10.0 mi East 3.5 mph - N/A   Overcast
7:16 AM 21.2 °F 14.9 °F 17.6 °F 86% 29.69 in 10.0 mi East 4.6 mph - N/A   Overcast
7:36 AM 21.2 °F 13.6 °F 15.8 °F 80% 29.70 in 10.0 mi ESE 5.8 mph - N/A   Overcast
7:56 AM 21.2 °F - 15.8 °F 80% 29.70 in 10.0 mi Calm Calm - N/A   Overcast
8:16 AM 21.2 °F 16.4 °F 17.6 °F 86% 29.70 in 10.0 mi ESE 3.5 mph - N/A   Overcast
8:36 AM 23.0 °F 17.0 °F 17.6 °F 80% 29.71 in 10.0 mi ENE 4.6 mph - N/A   Overcast
8:56 AM 23.0 °F - 17.6 °F 80% 29.71 in 10.0 mi Calm Calm - N/A   Overcast
9:16 AM 24.8 °F - 17.6 °F 74% 29.71 in 10.0 mi Calm Calm - N/A   Overcast
9:36 AM 24.8 °F - 17.6 °F 74% 29.72 in 10.0 mi Calm Calm - N/A   Overcast
9:56 AM 24.8 °F 20.5 °F 17.6 °F 74% 29.72 in 10.0 mi East 3.5 mph - N/A   Overcast
10:16 AM 24.8 °F 17.9 °F 17.6 °F 74% 29.72 in 10.0 mi East 5.8 mph - N/A   Overcast
10:36 AM 26.6 °F 19.1 °F 17.6 °F 69% 29.72 in 10.0 mi East 6.9 mph - N/A   Overcast
10:56 AM 26.6 °F 18.2 °F 17.6 °F 69% 29.72 in 10.0 mi East 8.1 mph - N/A   Overcast
11:16 AM 26.6 °F 21.2 °F 17.6 °F 69% 29.73 in 10.0 mi ENE 4.6 mph - N/A   Overcast
11:36 AM 26.6 °F 19.1 °F 17.6 °F 69% 29.73 in 10.0 mi ENE 6.9 mph - N/A   Overcast
11:56 AM 26.6 °F 21.2 °F 17.6 °F 69% 29.73 in 10.0 mi East 4.6 mph - N/A   Overcast
12:16 PM 28.4 °F 21.2 °F 19.4 °F 69% 29.73 in 10.0 mi East 6.9 mph - N/A   Overcast
12:36 PM 28.4 °F 21.2 °F 19.4 °F 69% 29.73 in 10.0 mi ENE 6.9 mph - N/A   Overcast
12:56 PM 28.4 °F 21.2 °F 17.6 °F 64% 29.74 in 10.0 mi ENE 6.9 mph - N/A   Overcast
1:16 PM 28.4 °F 21.2 °F 19.4 °F 69% 29.74 in 10.0 mi East 6.9 mph - N/A   Overcast
1:36 PM 28.4 °F 21.2 °F 19.4 °F 69% 29.74 in 10.0 mi NE 6.9 mph - N/A   Overcast
1:56 PM 28.4 °F 21.2 °F 19.4 °F 69% 29.74 in 10.0 mi ENE 6.9 mph - N/A   Overcast
2:16 PM 28.4 °F 21.2 °F 19.4 °F 69% 29.75 in 10.0 mi ENE 6.9 mph - N/A   Overcast
2:36 PM 30.2 °F 22.6 °F 19.4 °F 64% 29.75 in 10.0 mi ENE 8.1 mph - N/A   Overcast
2:56 PM 30.2 °F 23.4 °F 17.6 °F 60% 29.75 in 10.0 mi NE 6.9 mph - N/A   Overcast
3:16 PM 30.2 °F 22.6 °F 17.6 °F 60% 29.75 in 10.0 mi NE 8.1 mph - N/A   Overcast
3:36 PM 30.2 °F 22.6 °F 17.6 °F 60% 29.75 in 10.0 mi ENE 8.1 mph - N/A   Overcast
3:56 PM 30.2 °F 24.3 °F 17.6 °F 60% 29.75 in 10.0 mi ENE 5.8 mph - N/A   Overcast
4:16 PM 30.2 °F 23.4 °F 19.4 °F 64% 29.75 in 10.0 mi ENE 6.9 mph - N/A   Overcast
4:36 PM 30.2 °F 23.4 °F 19.4 °F 64% 29.75 in 10.0 mi North 6.9 mph - N/A   Overcast
4:56 PM 30.2 °F 23.4 °F 19.4 °F 64% 29.75 in 10.0 mi NE 6.9 mph - N/A   Overcast
5:16 PM 30.2 °F 22.6 °F 17.6 °F 60% 29.75 in 10.0 mi NE 8.1 mph - N/A   Mostly Cloudy
5:36 PM 28.4 °F 21.2 °F 17.6 °F 64% 29.75 in 10.0 mi NNE 6.9 mph - N/A   Mostly Cloudy
5:56 PM 28.4 °F 18.5 °F 17.6 °F 64% 29.75 in 10.0 mi NNE 11.5 mph - N/A   Overcast
6:16 PM 30.2 °F 23.4 °F 17.6 °F 60% 29.76 in 10.0 mi NNE 6.9 mph - N/A   Mostly Cloudy
6:36 PM 28.4 °F 18.5 °F 15.8 °F 59% 29.75 in 10.0 mi ENE 11.5 mph - N/A   Partly Cloudy
6:56 PM 28.4 °F 18.5 °F 17.6 °F 64% 29.76 in 10.0 mi East 11.5 mph - N/A   Scattered Clouds
7:16 PM 28.4 °F 17.0 °F 15.8 °F 59% 29.76 in 10.0 mi East 15.0 mph - N/A   Scattered Clouds
7:36 PM 26.6 °F 14.7 °F 15.8 °F 64% 29.76 in 10.0 mi East 15.0 mph - N/A   Clear
7:56 PM 26.6 °F 15.2 °F 15.8 °F 64% 29.76 in 10.0 mi East 13.8 mph - N/A   Clear
8:16 PM 26.6 °F 15.7 °F 15.8 °F 64% 29.77 in 10.0 mi East 12.7 mph - N/A   Clear
8:36 PM 24.8 °F 16.1 °F 15.8 °F 69% 29.77 in 10.0 mi ENE 8.1 mph - N/A   Clear
8:56 PM 24.8 °F 16.9 °F 14.0 °F 64% 29.78 in 10.0 mi NNE 6.9 mph - N/A   Clear
9:16 PM 24.8 °F 20.5 °F 14.0 °F 64% 29.78 in 10.0 mi NE 3.5 mph - N/A   Clear
9:36 PM 23.0 °F 15.8 °F 15.8 °F 74% 29.79 in 10.0 mi NE 5.8 mph - N/A   Clear
9:56 PM 23.0 °F 15.8 °F 15.8 °F 74% 29.79 in 10.0 mi NNE 5.8 mph - N/A   Clear
10:16 PM 21.2 °F 13.6 °F 15.8 °F 80% 29.80 in 10.0 mi NNE 5.8 mph - N/A   Clear
10:36 PM 19.4 °F 11.5 °F 12.2 °F 74% 29.80 in 10.0 mi North 5.8 mph - N/A   Clear
10:56 PM 19.4 °F 12.8 °F 12.2 °F 74% 29.80 in 10.0 mi North 4.6 mph - N/A   Clear
11:16 PM 17.6 °F 10.7 °F 12.2 °F 79% 29.81 in 10.0 mi NE 4.6 mph - N/A   Clear
11:36 PM 17.6 °F 8.2 °F 10.4 °F 73% 29.81 in 10.0 mi North 6.9 mph - N/A   Clear
11:56 PM 15.8 °F 7.2 °F 10.4 °F 79% 29.81 in 10.0 mi NNE 5.8 mph - N/A   Clear